星链-31641 (STARLINK-31641 )

导读

STARLINK-31641是美国SpaceX星链星座的一员,于2024年4月2日发射入轨,属于星链互联网卫星组网任务的组成部分。星链系统旨在为全球提供低延迟、高速率的宽带互联网服务,该卫星升空后,将参与低轨星座部署,进一步完善全球覆盖网络,提升星链服务的稳定性与覆盖能力。

Basic Information
目录编号:
59374
目录名称:
STARLINK-31641
国际标识:
2024-062A
轨道中心:
EARTH
卫星名称:
星链-31641
卫星全名:
星链-31641 (STARLINK-31641 )
卫星状态:
在轨 (已飞行807 天)
发射日期:
2024-04-02 UTC
国别 :
美国 (US)
星等 :
--
Orbit Information
数据来源 国际轨道数据 AOE轨道数据
星历时间 2026-06-18T07:04:50+0800
5小时前
查看轨道信息
2026-06-17T12:00:00+0800
1天前
查看轨道信息
半长轴 6840.844km 6840.805km
偏心率 0.0001163 0.0001618
轨道倾角 53.161° 53.155°
近地点辐角 98.125° 93.151°
升交点赤经 151.331° 155.053°
平近点角 261.989° 192.922°
近地点 461.911km 461.561km
远地点 463.503km 463.775km
周期 93.848分钟 93.847分钟
每日圈数 15.343989 15.344119
Detailed Information
固有亮度:
5
最大亮度:
0.3
卫星平台:
Starlink v2.0 mini
覆盖范围:
全球
运营商:
太空探索技术公司
运营商所在国:
美国
制造商(研发单位):
太空探索技术公司
制造商所在国:
美国
使用方式:
暂无
Satellite Introduction
星链(Starlink)计划是由太空探索技术公司(SpaceX)提出的一个巨型低轨卫星互联网星座项目,计划在2019年至2024年间在太空搭建由约1.2万颗卫星组成的“星链”网络,其中1584颗将部署在地球上空550千米处的近地轨道,并从2020年开始工作。该卫星仍在工作。
2D Orbit Map
3D Orbit Map
Orbit Altitude Analysis Chart
Orbit Inclination Analysis Chart
Orbit Comprehensive Analysis Chart
View Comprehensive Chart